Weather History for KIWI - December, 2013

Change the Weather History Date:

Wednesday, December 4, 2013

  Actual Average Record
Temperature  
Mean Temperature 34 °F -  
Max Temperature 42 °F 38 °F 63 °F (1998)
Min Temperature 25 °F 21 °F 8 °F (2002)
Degree Days  
Heating Degree Days 32    
Moisture  
Dew Point 25 °F    
Average Humidity 78    
Maximum Humidity 92    
Minimum Humidity 53    
Precipitation  
Precipitation 0.00 in - - ()
Sea Level Pressure  
Sea Level Pressure 30.05 in    
Wind  
Wind Speed 2 mph (WNW)    
Max Wind Speed 8 mph    
Max Gust Speed -    
Visibility 9 miles    
Events      
Averages and records for this station are not official NWS values.
T = Trace of Precipitation, MM = Missing Value Source: NWS Daily Summary

Daily Weather History Graph

Daily Weather History Graph

Search for Another Location

Airport or City:

Trip Planner

Search our weather history database for the weather conditions in past years. The results will help you decide how hot, cold, wet, or windy it might be!

Date:

Astronomy

Dec. 04, 2013 Rise Set
Actual Time 6:56 AM EST 4:01 PM EST
Civil Twilight 6:24 AM EST 4:33 PM EST
Nautical Twilight 5:48 AM EST 5:10 PM EST
Astronomical Twilight 5:13 AM EST 5:44 PM EST
Moon 8:20 AM EST (12/4) 6:09 PM EST (12/4)
Length of Visible Light 10h 09m
Length of Day
9h 04m
Waxing Crescent, 4% of the Moon is Illuminated
Dec 4
Waxing Crescent
Dec 9
First Quarter
Dec 17
Full
Dec 25
Last Quarter
Jan 1
New

Hourly Weather History & Observations

Time (EST) Temp. Windchill Dew Point Humidity Pressure Visibility Wind Dir Wind Speed Gust Speed Precip Events Conditions
12:53 AM 28.0 °F - 26.1 °F 92% 29.89 in 6.0 mi Calm Calm - N/A   Clear
1:53 AM 27.0 °F - 25.0 °F 92% 29.91 in 5.0 mi Calm Calm - N/A   Clear
2:53 AM 30.0 °F 26.5 °F 27.0 °F 88% 29.91 in 9.0 mi West 3.5 mph - N/A   Clear
3:53 AM 28.0 °F 24.2 °F 25.0 °F 88% 29.92 in 10.0 mi WNW 3.5 mph - N/A   Clear
4:53 AM 27.0 °F - 24.1 °F 89% 29.95 in 6.0 mi Calm Calm - N/A   Clear
5:53 AM 26.1 °F - 21.9 °F 84% 29.97 in 10.0 mi Calm Calm - N/A   Clear
6:53 AM 27.0 °F - 21.9 °F 81% 29.99 in 10.0 mi Calm Calm - N/A   Clear
7:53 AM 30.0 °F 26.5 °F 25.0 °F 82% 30.01 in 10.0 mi West 3.5 mph - N/A   Clear
8:53 AM 35.1 °F - 26.1 °F 70% 30.03 in 10.0 mi Calm Calm - N/A   Clear
9:53 AM 37.9 °F - 27.0 °F 65% 30.05 in 10.0 mi Calm Calm - N/A   Clear
10:53 AM 41.0 °F 38.0 °F 27.0 °F 57% 30.04 in 10.0 mi Variable 4.6 mph - N/A   Clear
11:53 AM 41.0 °F 35.8 °F 26.1 °F 55% 30.03 in 10.0 mi NW 8.1 mph - N/A   Clear
12:53 PM 41.0 °F 36.4 °F 26.1 °F 55% 30.04 in 10.0 mi Variable 6.9 mph - N/A   Clear
1:53 PM 42.1 °F 37.7 °F 26.1 °F 53% 30.04 in 10.0 mi Variable 6.9 mph - N/A   Clear
2:53 PM 42.1 °F 40.2 °F 26.1 °F 53% 30.04 in 10.0 mi Variable 3.5 mph - N/A   Clear
3:53 PM 39.0 °F 36.8 °F 25.0 °F 57% 30.08 in 10.0 mi Variable 3.5 mph - N/A   Clear
4:53 PM 30.9 °F - 26.1 °F 82% 30.11 in 10.0 mi Calm Calm - N/A   Clear
5:53 PM 28.9 °F - 26.1 °F 89% 30.13 in 10.0 mi Calm Calm - N/A   Clear
6:53 PM 28.0 °F - 25.0 °F 88% 30.17 in 9.0 mi Calm Calm - N/A   Clear
7:53 PM 27.0 °F - 25.0 °F 92% 30.18 in 8.0 mi Calm Calm - N/A   Clear
8:53 PM 27.0 °F - 24.1 °F 89% 30.19 in 9.0 mi Calm Calm - N/A   Clear
9:53 PM 26.1 °F - 23.0 °F 88% 30.20 in 8.0 mi Calm Calm - N/A   Clear
10:53 PM 25.0 °F - 21.9 °F 88% 30.21 in 9.0 mi Calm Calm - N/A   Clear
11:53 PM 25.0 °F - 21.9 °F 88% 30.23 in 7.0 mi Calm Calm - N/A   Clear